Location: Brede
(50.9167°N, 0.6000°E)
Time: 11:31:48
(UTC+00:00)

H-2A R/B - Visible Passes

Search period start: 29 November 2020 00:00
Search period end: 09 December 2020 00:00
Orbit: 577 x 656 km, 98.5° (Epoch: 29 November)

Date Brightness Start Highest point End Pass type
(mag) Time Alt. Az. Time Alt. Az. Time Alt. Az.
29 Nov 2.0 17:20:39 10° NNE 17:24:52 88° E 17:29:09 10° SSW visible
29 Nov 4.8 18:58:05 10° NNW 19:00:16 14° NW 19:02:28 10° W visible
30 Nov 2.4 17:36:47 10° N 17:40:58 66° WNW 17:45:11 10° SSW visible
30 Nov 5.1 19:15:19 10° NW 19:16:10 10° NW 19:16:59 10° WNW visible
01 Dec 3.0 17:52:58 10° N 17:57:00 47° WNW 18:01:07 10° SW visible
02 Dec 2.9 16:33:16 10° NE 16:37:02 30° E 16:40:50 10° SSE visible
02 Dec 3.6 18:09:13 10° N 18:13:01 34° WNW 18:16:54 10° SW visible
03 Dec 2.5 16:49:10 10° NNE 16:53:13 42° E 16:57:19 10° S visible
03 Dec 4.1 18:25:32 10° N 18:29:01 25° WNW 18:32:33 10° WSW visible
04 Dec 2.1 17:05:09 10° NNE 17:09:22 60° ESE 17:13:39 10° S visible
04 Dec 4.5 18:41:57 10° NNW 18:44:58 19° WNW 18:48:02 10° WSW visible
05 Dec 2.0 17:21:12 10° NNE 17:25:29 85° ESE 17:29:50 10° SSW visible
05 Dec 4.8 18:58:32 10° NNW 19:00:54 15° NW 19:03:16 10° W visible
06 Dec 2.3 17:37:19 10° N 17:41:34 69° WNW 17:45:54 10° SSW visible
06 Dec 5.0 19:15:32 10° NW 19:16:47 11° NW 19:18:02 10° WNW visible
07 Dec 2.9 17:53:29 10° N 17:57:37 49° WNW 18:01:49 10° SW visible
08 Dec 3.0 16:33:49 10° NE 16:37:37 30° E 16:41:29 10° SSE visible
08 Dec 3.5 18:09:43 10° N 18:13:38 35° WNW 18:17:37 10° SW visible
